When you browse on this site, cookies collect data to enhance your experience and personalize the content and advertising you see.
Visit our Privacy Policy to learn more. By continuing to use the site, you agree to this use of cookies and data.
  • In France
  • List of Countries
  • For 7 days
  • Water Temperature
  • Weather Map
  • Weather Widgets
  • user-avatar
    Login

    Hourly Weather Cele

    Today, 26 May, Tuesday

    Time Temperature Precipitation Wind Pressure Humidity
    00:00 +10°C° 0.2 mm 1 mps 744 mmHg 94%
    01:00 +9°C° 0 mm 0 mps 744 mmHg 95%
    02:00 +8°C° 0 mm 0 mps 744 mmHg 95%
    03:00 +8°C° 0 mm 0 mps 744 mmHg 94%
    04:00 +8°C° 0 mm 1 mps 744 mmHg 94%
    05:00 +10°C° 0 mm 1 mps 744 mmHg 91%
    06:00 +11°C° 0 mm 1 mps 745 mmHg 88%
    07:00 +12°C° 0 mm 0 mps 745 mmHg 85%
    08:00 +15°C° 0.2 mm 1 mps 745 mmHg 75%
    09:00 +16°C° 0.2 mm 2 mps 745 mmHg 66%
    10:00 +17°C° 0.2 mm 3 mps 745 mmHg 56%
    11:00 +18°C° 0.3 mm 4 mps 745 mmHg 53%
    12:00 +19°C° 0.3 mm 4 mps 744 mmHg 50%
    13:00 +19°C° 0.3 mm 4 mps 744 mmHg 47%
    14:00 +19°C° 0.2 mm 4 mps 744 mmHg 47%
    15:00 +19°C° 0.2 mm 4 mps 744 mmHg 47%
    16:00 +19°C° 0.2 mm 4 mps 744 mmHg 47%
    17:00 +17°C° 0 mm 3 mps 744 mmHg 55%
    18:00 +16°C° 0 mm 3 mps 744 mmHg 62%
    19:00 +14°C° 0 mm 2 mps 744 mmHg 70%
    20:00 +13°C° 0 mm 2 mps 745 mmHg 73%
    21:00 +11°C° 0 mm 1 mps 745 mmHg 76%
    22:00 +10°C° 0 mm 1 mps 746 mmHg 79%
    23:00 +10°C° 0 mm 1 mps 746 mmHg 80%

    Tomorrow, 27 May, Wednesday

    Time Temperature Precipitation Wind Pressure Humidity
    00:00 +9°C° 0 mm 1 mps 746 mmHg 81%
    01:00 +9°C° 0 mm 1 mps 746 mmHg 82%
    02:00 +9°C° 0 mm 1 mps 746 mmHg 83%
    03:00 +8°C° 0 mm 1 mps 745 mmHg 84%
    04:00 +8°C° 0 mm 1 mps 745 mmHg 85%
    05:00 +10°C° 0 mm 1 mps 746 mmHg 78%
    06:00 +12°C° 0 mm 1 mps 746 mmHg 70%
    07:00 +14°C° 0 mm 1 mps 746 mmHg 63%
    08:00 +16°C° 0 mm 2 mps 746 mmHg 56%
    09:00 +18°C° 0 mm 2 mps 746 mmHg 48%
    10:00 +20°C° 0 mm 3 mps 746 mmHg 41%
    11:00 +20°C° 0 mm 3 mps 746 mmHg 40%
    12:00 +21°C° 0 mm 3 mps 745 mmHg 38%
    13:00 +22°C° 0 mm 3 mps 745 mmHg 37%
    14:00 +22°C° 0 mm 3 mps 744 mmHg 38%
    15:00 +23°C° 0 mm 2 mps 744 mmHg 40%
    16:00 +23°C° 0 mm 2 mps 744 mmHg 41%
    17:00 +20°C° 0 mm 2 mps 744 mmHg 52%
    18:00 +19°C° 0 mm 1 mps 744 mmHg 62%
    19:00 +16°C° 0 mm 1 mps 744 mmHg 73%
    20:00 +15°C° 0 mm 1 mps 744 mmHg 77%
    21:00 +13°C° 0 mm 1 mps 744 mmHg 81%
    22:00 +11°C° 0 mm 0 mps 745 mmHg 86%
    23:00 +10°C° 0 mm 0 mps 744 mmHg 86%

    Day after tomorrow, 28 May, Thursday

    Time Temperature Precipitation Wind Pressure Humidity
    00:00 +11°C° 0 mm 1 mps 744 mmHg 86%
    01:00 +11°C° 0 mm 1 mps 744 mmHg 87%
    02:00 +10°C° 0 mm 1 mps 744 mmHg 87%
    03:00 +10°C° 0 mm 1 mps 744 mmHg 88%
    04:00 +10°C° 0 mm 1 mps 744 mmHg 88%
    05:00 +11°C° 0 mm 1 mps 743 mmHg 83%
    06:00 +13°C° 0 mm 1 mps 743 mmHg 77%
    07:00 +15°C° 0 mm 1 mps 743 mmHg 72%
    08:00 +18°C° 0 mm 1 mps 743 mmHg 65%
    09:00 +19°C° 0 mm 1 mps 743 mmHg 58%
    10:00 +21°C° 0 mm 1 mps 743 mmHg 50%
    11:00 +21°C° 0.1 mm 1 mps 743 mmHg 52%
    12:00 +21°C° 0.1 mm 1 mps 742 mmHg 54%
    13:00 +21°C° 0.1 mm 2 mps 742 mmHg 57%
    14:00 +19°C° 0.6 mm 2 mps 742 mmHg 67%
    15:00 +18°C° 0.6 mm 1 mps 741 mmHg 78%
    16:00 +16°C° 0.6 mm 1 mps 741 mmHg 89%
    17:00 +15°C° 0.3 mm 1 mps 741 mmHg 90%
    18:00 +15°C° 0.3 mm 1 mps 741 mmHg 90%
    19:00 +13°C° 0.3 mm 0 mps 741 mmHg 91%
    20:00 +12°C° 0 mm 0 mps 742 mmHg 91%
    21:00 +11°C° 0 mm 0 mps 742 mmHg 91%
    22:00 +10°C° 0 mm 0 mps 742 mmHg 91%
    23:00 +9°C° 0 mm 0 mps 742 mmHg 91%

    29 May, Friday

    Time Temperature Precipitation Wind Pressure Humidity
    00:00 +9°C° 0 mm 0 mps 742 mmHg 91%
    01:00 +8°C° 0 mm 0 mps 741 mmHg 91%
    02:00 +8°C° 0 mm 0 mps 741 mmHg 91%
    03:00 +9°C° 0 mm 1 mps 741 mmHg 92%
    04:00 +8°C° 0 mm 1 mps 741 mmHg 92%
    05:00 +9°C° 0 mm 0 mps 741 mmHg 89%
    06:00 +11°C° 0 mm 0 mps 741 mmHg 86%
    07:00 +12°C° 0 mm 0 mps 741 mmHg 84%
    08:00 +15°C° 0 mm 1 mps 741 mmHg 72%
    09:00 +18°C° 0 mm 1 mps 741 mmHg 61%
    10:00 +18°C° 0 mm 2 mps 741 mmHg 49%
    11:00 +19°C° 0.1 mm 2 mps 740 mmHg 48%
    12:00 +19°C° 0.1 mm 2 mps 740 mmHg 47%
    13:00 +20°C° 0.1 mm 1 mps 739 mmHg 46%
    14:00 +18°C° 0.3 mm 2 mps 739 mmHg 54%
    15:00 +17°C° 0.3 mm 2 mps 739 mmHg 62%
    16:00 +16°C° 0.3 mm 2 mps 739 mmHg 70%
    17:00 +15°C° 0.1 mm 2 mps 739 mmHg 73%
    18:00 +15°C° 0.1 mm 1 mps 739 mmHg 76%
    19:00 +14°C° 0.1 mm 1 mps 739 mmHg 79%
    20:00 +13°C° 0 mm 1 mps 740 mmHg 80%
    21:00 +11°C° 0 mm 1 mps 740 mmHg 82%
    22:00 +9°C° 0 mm 0 mps 740 mmHg 84%
    23:00 +8°C° 0 mm 0 mps 740 mmHg 85%

    30 May, Saturday

    Time Temperature Precipitation Wind Pressure Humidity
    00:00 +8°C° 0 mm 0 mps 740 mmHg 86%
    01:00 +7°C° 0 mm 0 mps 740 mmHg 88%
    02:00 +6°C° 0 mm 0 mps 740 mmHg 88%
    03:00 +7°C° 0 mm 1 mps 740 mmHg 89%
    04:00 +7°C° 0 mm 1 mps 740 mmHg 90%
    05:00 +8°C° 0 mm 0 mps 740 mmHg 84%
    06:00 +10°C° 0 mm 0 mps 740 mmHg 78%
    07:00 +12°C° 0 mm 0 mps 740 mmHg 72%
    08:00 +14°C° 0 mm 0 mps 740 mmHg 62%
    09:00 +18°C° 0 mm 1 mps 739 mmHg 53%
    10:00 +20°C° 0 mm 1 mps 739 mmHg 43%
    11:00 +20°C° 0 mm 1 mps 739 mmHg 43%
    12:00 +20°C° 0 mm 1 mps 739 mmHg 44%
    13:00 +19°C° 0 mm 2 mps 738 mmHg 44%
    14:00 +19°C° 0 mm 2 mps 738 mmHg 45%
    15:00 +18°C° 0 mm 2 mps 738 mmHg 47%
    16:00 +18°C° 0 mm 2 mps 738 mmHg 48%
    17:00 +18°C° 0 mm 1 mps 738 mmHg 55%
    18:00 +16°C° 0 mm 1 mps 738 mmHg 63%
    19:00 +14°C° 0 mm 1 mps 738 mmHg 70%
    20:00 +13°C° 0 mm 1 mps 738 mmHg 72%
    21:00 +11°C° 0 mm 0 mps 738 mmHg 75%
    22:00 +10°C° 0 mm 0 mps 739 mmHg 77%
    23:00 +10°C° 0 mm 0 mps 738 mmHg 77%

    31 May, Sunday

    Time Temperature Precipitation Wind Pressure Humidity
    00:00 +10°C° 0 mm 0 mps 738 mmHg 77%
    01:00 +11°C° 0 mm 0 mps 738 mmHg 77%
    02:00 +10°C° 0 mm 0 mps 738 mmHg 79%
    03:00 +10°C° 0 mm 0 mps 738 mmHg 81%
    04:00 +9°C° 0 mm 0 mps 738 mmHg 82%
    05:00 +10°C° 0 mm 0 mps 738 mmHg 79%
    06:00 +11°C° 0 mm 0 mps 738 mmHg 76%
    07:00 +13°C° 0 mm 0 mps 738 mmHg 73%
    08:00 +13°C° 0.2 mm 0 mps 738 mmHg 73%
    09:00 +14°C° 0.2 mm 1 mps 738 mmHg 74%
    10:00 +14°C° 0.2 mm 1 mps 738 mmHg 74%
    11:00 +16°C° 0.4 mm 1 mps 737 mmHg 69%
    12:00 +19°C° 0.4 mm 1 mps 737 mmHg 65%
    13:00 +20°C° 0.4 mm 1 mps 737 mmHg 60%
    14:00 +20°C° 0.8 mm 1 mps 737 mmHg 66%
    15:00 +19°C° 0.8 mm 1 mps 736 mmHg 73%
    16:00 +18°C° 0.8 mm 1 mps 736 mmHg 79%
    17:00 +16°C° 0.5 mm 1 mps 736 mmHg 83%
    18:00 +15°C° 0.5 mm 1 mps 736 mmHg 86%
    19:00 +13°C° 0.5 mm 0 mps 736 mmHg 90%
    20:00 +12°C° 0.1 mm 0 mps 736 mmHg 91%
    21:00 +13°C° 0.1 mm 1 mps 737 mmHg 92%
    22:00 +12°C° 0.1 mm 1 mps 737 mmHg 93%
    23:00 +11°C° 0 mm 1 mps 737 mmHg 94%
    Show more